Showing default

ARASE (ERG), 41896

Orbit data source: Space-Track

ARASE (ERG), 41896 is a payload satellite owned by ISAS/JAXA (JP) in HEO that was launched on Tue, 20 Dec 2016 UTC via an EPSILON launch vehicle from the Kagoshima Space Center University Of Tokyo (KSCUT). Payload-class satellites include a variety of spacecraft equipped with specific instruments for various scientific and technological missions. These include communications satellites like Starlink; space stations such as the ISS; scientific satellites like the Hubble; Earth observation satellites from companies like Planet Labs, Umbra, and HawkEye 360; GPS; miniature CubeSats for education and research; and military/defense satellites.

Loading next visibility...
Identifier
41896, 2016-080A
Orbit
HEO
Country
Flag of JPJP / JPN
Related business
Manufacturer
ISAS/JAXA
Mission
Operational Civil Science
Bus & Motor
SPRINT-B, Unknown motor
Mass
350 kg wet, 350 kg dry
Launch date (UTC)
2016-12-20 (9 years ago)
Launch vehicle
EPSILON
Launch site
Kagoshima Space Center University Of Tokyo (KSCUT)
Object type
Payload
Rocket body
Debris
Shape & HBR
Box + 4 Pan + 6 Ant, 3.0 m
Radar Cross Section
33.836 m², Large (>1 m²)

Expand to show TLE details & history
Last TLE update: 15 hours ago

TLE from 15 hours ago
0 ARASE (ERG)
1 41896U 16080A   26094.60343145  .00001516  00000-0  29053-2 0  9994
2 41896  31.8526  37.5219 6997092   2.5487 359.5491  2.57548856 86381
Epoch: 2026-04-04T14:28Z
TLE epoch observation values (Epoch: 2026-04-04T14:28:56.477Z)
Latitude
-0.0006°
Longitude
-12.64597°
Altitude
357.355 km
Speed
10.031 km/s
True Right ascension
02h 30m 02s
True Declination
0° 00' 02"
Sunlit
Object was in daylight at epoch
Visualization orbit readout
Latitude
Unknown
Longitude
Unknown
Altitude
Unknown
Speed
Unknown
Apparent Right ascension
Unknown
Apparent Declination
Unknown
Sunlit
N/A
Visualization observer readout
Local Sidereal Time
11:23:25
Azimuth
Unknown
Elevation
Unknown
Doppler factor
Unknown
Orbital elements
Apogee altitude
31,839.522 km
Perigee altitude
373.848 km
Semi-major axis
22,484.822 km
Eccentricity
0.69971
Inclination
31.8526°
RAAN
37.5219°
Arg. of periapsis
2.5487°
True anomaly
356.42955°
Mean anomaly
359.5491°
Eccentric anomaly
358.49886°
Mean motion
0.64374 °/min
Orbital period
559.23 mins
BSTAR
0.0029053
Loading maneuver chart data...
Computing Atmospheric mass density...
Loading historical data...
Loading historical data...
Loading historical data...
Loading historical data...
Loading historical data...
Loading historical data...
Loading historical data...
Other satellites on launch #80 in the year 2016 (2016-12-20 UTC)

Documentation

Showing up to 5 results
|